Torna al catalogo

STARLINK-3756

AttivoComunicazioniVLEO
NORAD 52309·PAYLOAD·🇺🇸 United States

Lanciato Apr 21, 2022 da Cape Canaveral Space Force Station

Loading…

Prossimi Passaggi (prossime 24 ore)

TLE

AggiornatoSource: CelesTrak SupGP

Epoca: Sep 15, 2026, 01:04 UTC

1 52309C 22041BA  26258.04493056  .00040712  00000+0  13092-2 0  2580
2 52309  53.1571 305.1673 0001073  89.2899  44.1197 15.31681001    17

Traccia STARLINK-3756 in tempo reale con AllMySat

Download on the App Store